QPF
0.00 0.00 0.00 0.00 0.00 0.00 0.00 0.00 0.00 0.00 0.00 0.00 0.00 0.00 0.00 0.00 0.00 0.00 0.00 0.00 0.00 0.00 0.00 0.00 0.00 0.00 0.00 0.00 0.00 0.00 0.00 0.00 0.00 0.00 0.00 0.00 0.00 0.00 0.00 0.00 0.00 0.00 0.00 0.00 0.00
0.00 0.00 0.00 0.00 0.00 0.00 0.00 0.00 0.00 0.00 0.00 0.00 0.00 0.00 0.00 0.00 0.00 0.00 0.00 0.00 0.00 0.00 0.00 0.00 0.00 0.00 0.00 0.00 0.00 0.00 0.00 0.00 0.00 0.00 0.00 0.00 0.00 0.00 0.00 0.00 0.00 0.00 0.00 0.00 0.00
0.00 0.00 0.00 0.00 0.00 0.00 0.00 0.00 0.00 0.00 0.00 0.00 0.00 0.00 0.00 0.00 0.00 0.00 0.00 0.00 0.00 0.00 0.00 0.00 0.00 0.00 0.00 0.00 0.00 0.00 0.00 0.00 0.00 0.00 0.00 0.00 0.00 0.00 0.00 0.00 0.00 0.00 0.00 0.00 0.00
0.00 0.00 0.00 0.00 0.00 0.00 0.00 0.00 0.00 0.00 0.00 0.00 0.00 0.00 0.00 0.00 0.00 0.00 0.00 0.00 0.00 0.00 0.00 0.00 0.00 0.00 0.00 0.00 0.00 0.00 0.00 0.00 0.00 0.00 0.00 0.00 0.00 0.00 0.00 0.00 0.00 0.00 0.00 0.00 0.00
0.00 0.00 0.00 0.00 0.00 0.00 0.00 0.00 0.00 0.00 0.00 0.00 0.00 0.00 0.00 0.00 0.00 0.00 0.00 0.00 0.00 0.00 0.00 0.00 0.00 0.00 0.00 0.00 0.00 0.00 0.00 0.00 0.00 0.00 0.00 0.00 0.00 0.00 0.00 0.00 0.00 0.00 0.00 0.00 0.00
0.00 0.00 0.00 0.00 0.00 0.00 0.00 0.00 0.00 0.00 0.00 0.00 0.00 0.00 0.00 0.00 0.00 0.00 0.00 0.00 0.00 0.00 0.00 0.00 0.00 0.00 0.00 0.00 0.00 0.00 0.00 0.00 0.00 0.00 0.00 0.00 0.00 0.00 0.00 0.00 0.00 0.00 0.00 0.00 0.00
0.00 0.00 0.00 0.00 0.00 0.00 0.00 0.00 0.00 0.00 0.00 0.00 0.00 0.00 0.00 0.00 0.00 0.00 0.00 0.00 0.00 0.00 0.00 0.00 0.00 0.00 0.00 0.00 0.00 0.00 0.00 0.00 0.00 0.00 0.00 0.00 0.00 0.00 0.00 0.00 0.00 0.00 0.00 0.00 0.00
0.00 0.00 0.00 0.00 0.00 0.00 0.00 0.00 0.00 0.00 0.00 0.00 0.00 0.00 0.00 0.00 0.00 0.00 0.00 0.00 0.00 0.00 0.00 0.00 0.00 0.00 0.00 0.00 0.00 0.00 0.00 0.00 0.00 0.00 0.00 0.00 0.00 0.00 0.00 0.00 0.00 0.00 0.00 0.00 0.00
0.00 0.00 0.00 0.00 0.00 0.00 0.00 0.00 0.00 0.00 0.00 0.00 0.00 0.00 0.00 0.00 0.00 0.00 0.00 0.00 0.00 0.00 0.00 0.00 0.00 0.00 0.00 0.00 0.00 0.00 0.00 0.00 0.00 0.00 0.00 0.00 0.00 0.00 0.00 0.00 0.00 0.00 0.00 0.00 0.00
0.00 0.00 0.00 0.00 0.00 0.00 0.00 0.00 0.00 0.00 0.00 0.00 0.00 0.00 0.00 0.00 0.00 0.00 0.00 0.00 0.00 0.00 0.00 0.00 0.00 0.00 0.00 0.00 0.00 0.00 0.00 0.00 0.00 0.00 0.00 0.00 0.00 0.00 0.00 0.00 0.00 0.00 0.00 0.00 0.00
0.00 0.00 0.00 0.00 0.00 0.00 0.00 0.00 0.00 0.00 0.00 0.00 0.00 0.00 0.00 0.00 0.00 0.00 0.00 0.00 0.00 0.00 0.00 0.00 0.00 0.00 0.00 0.00 0.00 0.01 0.00 0.00 0.00 0.00 0.00 0.00 0.00 0.00 0.00 0.00 0.00 0.00 0.00 0.00 0.00
0.00 0.00 0.00 0.00 0.00 0.00 0.00 0.00 0.00 0.00 0.00 0.00 0.00 0.00 0.00 0.00 0.00 0.00 0.00 0.00 0.00 0.00 0.00 0.00 0.00 0.00 0.00 0.00 0.00 0.00 0.00 0.00 0.00 0.00 0.00 0.00 0.00 0.00 0.00 0.00 0.00 0.00 0.00 0.00 0.00
0.00 0.00 0.00 0.00 0.00 0.00 0.00 0.00 0.00 0.00 0.00 0.00 0.00 0.00 0.00 0.00 0.00 0.00 0.00 0.00 0.00 0.00 0.00 0.00 0.00 0.00 0.00 0.00 0.00 0.00 0.00 0.00 0.00 0.00 0.00 0.00 0.00 0.00 0.00 0.00 0.00 0.00 0.00 0.00 0.00
0.00 0.00 0.00 0.00 0.00 0.00 0.00 0.00 0.00 0.00 0.00 0.00 0.00 0.00 0.00 0.00 0.00 0.00 0.00 0.00 0.00 0.00 0.00 0.00 0.00 0.00 0.00 0.00 0.00 0.00 0.00 0.00 0.00 0.00 0.00 0.00 0.01 0.00 0.00 0.00 0.00 0.00 0.00 0.00 0.00
0.00 0.00 0.00 0.00 0.00 0.00 0.00 0.00 0.00 0.00 0.00 0.00 0.00 0.00 0.00 0.00 0.00 0.00 0.00 0.00 0.00 0.00 0.00 0.00 0.00 0.00 0.00 0.00 0.00 0.00 0.00 0.00 0.00 0.00 0.00 0.00 0.03 0.00 0.00 0.00 0.00 0.00 0.00 0.00 0.00
0.00 0.00 0.00 0.00 0.00 0.00 0.00 0.00 0.00 0.00 0.00 0.00 0.00 0.00 0.00 0.00 0.00 0.00 0.00 0.00 0.00 0.00 0.00 0.00 0.00 0.00 0.00 0.00 0.00 0.00 0.00 0.00 0.00 0.00 0.01 0.00 0.03 0.00 0.00 0.00 0.00 0.00 0.00 0.00 0.00
0.00 0.00 0.00 0.00 0.00 0.00 0.00 0.00 0.00 0.00 0.00 0.00 0.00 0.00 0.00 0.00 0.00 0.00 0.00 0.00 0.00 0.00 0.00 0.00 0.00 0.00 0.00 0.00 0.00 0.00 0.01 0.02 0.01 0.01 0.00 0.00 0.02 0.00 0.00 0.00 0.00 0.00 0.00 0.00 0.00
0.00 0.00 0.00 0.00 0.00 0.00 0.00 0.00 0.00 0.00 0.00 0.00 0.00 0.00 0.00 0.00 0.00 0.00 0.00 0.00 0.00 0.00 0.01 0.01 0.00 0.00 0.00 0.00 0.00 0.00 0.02 0.02 0.01 0.01 0.01 0.02 0.01 0.00 0.00 0.00 0.00 0.00 0.00 0.00 0.00
0.00 0.00 0.00 0.00 0.00 0.00 0.00 0.00 0.00 0.00 0.00 0.00 0.00 0.00 0.00 0.00 0.00 0.00 0.00 0.00 0.00 0.01 0.02 0.01 0.00 0.00 0.00 0.00 0.00 0.00 0.00 0.02 0.02 0.01 0.01 0.01 0.00 0.00 0.00 0.00 0.00 0.00 0.00 0.00 0.00
0.00 0.00 0.00 0.00 0.00 0.00 0.00 0.00 0.00 0.00 0.00 0.00 0.00 0.00 0.00 0.00 0.00 0.00 0.00 0.00 0.00 0.02 0.01 0.02 0.01 0.00 0.00 0.00 0.00 0.00 0.00 0.01 0.03 0.02 0.01 0.00 0.00 0.01 0.00 0.00 0.00 0.00 0.00 0.00 0.00
0.00 0.00 0.00 0.00 0.00 0.00 0.00 0.00 0.00 0.00 0.00 0.00 0.00 0.00 0.00 0.00 0.00 0.00 0.00 0.00 0.00 0.00 0.00 0.01 0.01 0.00 0.00 0.00 0.00 0.00 0.01 0.03 0.03 0.02 0.01 0.01 0.00 0.01 0.01 0.01 0.02 0.00 0.00 0.00 0.00
0.00 0.00 0.00 0.00 0.00 0.00 0.00 0.00 0.00 0.00 0.00 0.00 0.00 0.00 0.00 0.00 0.00 0.00 0.00 0.00 0.00 0.00 0.00 0.00 0.01 0.00 0.00 0.00 0.00 0.00 0.00 0.03 0.03 0.02 0.01 0.02 0.01 0.02 0.02 0.01 0.01 0.02 0.00 0.00 0.00
0.00 0.00 0.00 0.00 0.00 0.00 0.00 0.00 0.00 0.00 0.00 0.00 0.00 0.00 0.00 0.00 0.01 0.00 0.00 0.00 0.00 0.00 0.00 0.00 0.00 0.00 0.00 0.00 0.00 0.00 0.00 0.01 0.03 0.03 0.01 0.04 0.00 0.00 0.00 0.00 0.01 0.02 0.00 0.01 0.01
0.00 0.00 0.00 0.00 0.00 0.00 0.00 0.00 0.00 0.00 0.00 0.00 0.00 0.00 0.00 0.00 0.00 0.00 0.00 0.00 0.00 0.00 0.02 0.01 0.00 0.00 0.00 0.00 0.00 0.00 0.00 0.00 0.01 0.01 0.01 0.03 0.00 0.00 0.00 0.00 0.00 0.00 0.01 0.01 0.01
0.00 0.00 0.00 0.00 0.00 0.00 0.00 0.00 0.00 0.00 0.00 0.00 0.00 0.00 0.00 0.00 0.00 0.00 0.00 0.00 0.00 0.01 0.00 0.00 0.00 0.00 0.00 0.00 0.00 0.00 0.00 0.00 0.00 0.00 0.01 0.02 0.01 0.00 0.00 0.00 0.00 0.00 0.00 0.00 0.04
0.00 0.00 0.00 0.00 0.00 0.00 0.00 0.00 0.00 0.00 0.00 0.00 0.00 0.00 0.00 0.00 0.00 0.00 0.00 0.00 0.00 0.00 0.00 0.00 0.00 0.00 0.00 0.00 0.00 0.01 0.00 0.00 0.00 0.00 0.00 0.00 0.00 0.00 0.00 0.00 0.00 0.00 0.00 0.01 0.08
0.00 0.00 0.00 0.00 0.00 0.00 0.00 0.00 0.00 0.00 0.00 0.00 0.00 0.00 0.00 0.00 0.00 0.00 0.00 0.00 0.00 0.00 0.00 0.00 0.00 0.00 0.00 0.00 0.01 0.00 0.01 0.02 0.01 0.03 0.02 0.01 0.00 0.00 0.00 0.00 0.00 0.00 0.00 0.10 0.27
MSLP
1019.11 1018.69 1018.27 1017.85 1017.45 1017.05 1016.66 1016.30 1016.03 1015.70 1015.40 1015.15 1014.89 1014.62 1014.30 1013.91 1013.21 1012.28 1011.76 1010.28 1010.16 1010.18 1010.04 1009.78 1009.32 1008.93 1008.73 1008.95 1008.68 1008.54 1008.74 1007.91 1007.43 1006.58 1005.34 1003.83 1002.74 1001.14 1000.82 1000.15 998.94 997.63 997.80 998.09 998.39
1019.15 1018.70 1018.25 1017.77 1017.31 1016.87 1016.45 1016.06 1015.72 1015.44 1015.18 1014.93 1014.68 1014.41 1014.13 1013.74 1012.92 1011.23 1010.04 1009.80 1010.00 1009.94 1009.84 1009.50 1008.88 1008.60 1008.91 1008.46 1008.52 1008.53 1008.17 1007.53 1007.02 1006.20 1005.30 1004.13 1003.21 1002.26 1001.86 1000.99 1000.12 999.09 997.56 997.98 998.24
1019.22 1018.65 1018.16 1017.72 1017.24 1016.79 1016.36 1015.95 1015.59 1015.24 1014.95 1014.69 1014.46 1014.14 1013.89 1013.55 1012.46 1009.93 1009.35 1009.72 1009.88 1009.88 1010.00 1009.62 1008.95 1008.60 1008.74 1008.37 1008.30 1008.14 1007.80 1007.47 1006.66 1005.90 1005.30 1004.57 1003.50 1002.83 1002.53 1001.54 1001.64 1001.23 1000.16 998.46 998.50
1019.30 1018.66 1018.05 1017.57 1017.13 1016.67 1016.23 1015.80 1015.42 1015.16 1014.96 1014.71 1014.42 1014.13 1013.67 1013.50 1012.08 1009.74 1009.81 1010.04 1010.04 1009.95 1009.90 1009.34 1008.92 1008.86 1008.96 1008.74 1007.94 1007.83 1007.14 1006.68 1006.16 1005.64 1005.14 1004.70 1004.16 1003.02 1002.87 1001.93 1001.91 1001.38 1000.98 999.07 998.82
1019.21 1018.61 1018.00 1017.42 1016.92 1016.47 1016.00 1015.61 1015.24 1015.02 1014.87 1014.71 1014.47 1014.33 1013.60 1012.85 1010.54 1009.59 1009.75 1010.00 1010.03 1009.88 1009.59 1009.26 1009.08 1008.98 1009.06 1008.79 1008.36 1007.77 1007.38 1006.61 1005.89 1005.51 1005.08 1004.61 1004.24 1003.83 1002.49 1001.97 1001.85 1001.35 1001.05 1000.18 1000.02
1018.98 1018.44 1017.82 1017.18 1016.63 1016.21 1015.81 1015.41 1015.06 1014.84 1014.71 1014.57 1014.40 1014.47 1014.05 1012.03 1008.67 1009.14 1009.43 1009.83 1009.51 1009.35 1009.09 1008.93 1008.95 1008.80 1008.92 1009.08 1009.11 1008.35 1007.67 1006.97 1006.17 1005.68 1005.35 1005.25 1004.60 1004.21 1002.71 1002.23 1002.01 1001.73 1001.27 1000.79 1000.22
1018.76 1018.23 1017.62 1016.97 1016.35 1015.86 1015.47 1015.14 1014.80 1014.53 1014.36 1014.19 1014.16 1014.21 1013.18 1010.51 1008.73 1009.32 1008.97 1008.77 1008.78 1008.66 1008.60 1008.50 1008.66 1009.22 1009.41 1009.46 1008.88 1008.77 1008.35 1007.39 1006.55 1005.98 1005.59 1005.32 1005.01 1004.37 1003.36 1002.79 1002.15 1001.85 1001.39 1001.04 1000.54
1018.52 1017.92 1017.30 1016.60 1015.99 1015.50 1015.09 1014.75 1014.38 1014.10 1013.90 1013.67 1013.93 1013.80 1011.95 1008.59 1008.16 1008.10 1008.20 1008.17 1008.13 1007.93 1008.11 1008.10 1008.32 1009.05 1009.63 1009.66 1009.41 1009.34 1008.73 1008.07 1006.69 1006.28 1005.62 1005.62 1005.09 1004.53 1003.62 1002.77 1002.48 1002.04 1001.44 1001.20 1000.38
1018.33 1017.70 1017.05 1016.26 1015.62 1015.10 1014.66 1014.30 1013.99 1013.70 1013.66 1013.76 1013.91 1013.32 1010.48 1007.98 1008.18 1007.45 1007.53 1007.62 1007.82 1007.69 1007.70 1007.65 1008.01 1008.88 1009.64 1009.95 1009.87 1009.41 1008.90 1008.03 1006.45 1005.72 1005.21 1004.92 1004.62 1004.10 1003.48 1003.17 1002.24 1002.05 1001.52 1001.30 1000.71
1017.99 1017.34 1016.69 1016.02 1015.39 1014.89 1014.31 1013.53 1013.40 1013.50 1013.34 1013.26 1012.74 1012.74 1009.64 1007.77 1007.13 1007.03 1007.14 1007.51 1007.66 1007.86 1007.97 1007.83 1008.01 1008.79 1009.55 1010.07 1009.95 1009.28 1008.83 1008.09 1006.51 1005.29 1004.60 1004.53 1004.49 1003.87 1003.32 1003.04 1002.10 1001.57 1001.28 1001.18 1000.82
1017.85 1017.09 1016.30 1015.57 1014.92 1014.57 1013.89 1013.16 1013.66 1013.31 1012.51 1011.43 1010.41 1009.42 1007.96 1007.05 1006.78 1006.68 1006.68 1006.99 1007.31 1007.76 1008.17 1007.91 1008.19 1008.59 1009.12 1009.35 1009.20 1009.56 1008.93 1007.98 1006.28 1005.05 1004.67 1004.42 1004.50 1003.87 1003.28 1002.97 1002.67 1001.64 1000.97 1000.85 1000.60
1017.67 1016.78 1015.97 1015.09 1014.46 1014.22 1014.25 1013.12 1011.27 1010.96 1009.93 1009.28 1008.39 1007.89 1007.09 1006.83 1006.84 1006.54 1006.32 1006.82 1007.10 1007.58 1007.61 1007.66 1007.39 1007.45 1007.70 1008.26 1008.94 1008.33 1008.47 1007.34 1006.24 1005.02 1004.64 1004.13 1003.95 1003.72 1003.39 1002.69 1002.18 1001.78 1001.09 1000.38 1000.52
1017.46 1016.59 1015.64 1014.67 1013.85 1013.62 1013.00 1011.56 1009.94 1010.13 1010.28 1008.09 1006.76 1006.58 1006.34 1006.69 1006.39 1006.04 1005.91 1006.04 1006.73 1007.21 1007.59 1007.51 1007.12 1006.80 1006.55 1006.84 1007.42 1007.30 1007.29 1006.74 1006.09 1005.22 1004.42 1004.73 1003.96 1003.48 1002.67 1002.12 1001.46 1001.14 1001.01 1000.52 999.87
1017.16 1016.17 1015.44 1014.43 1013.59 1012.52 1011.40 1010.05 1009.74 1009.99 1009.95 1007.26 1006.24 1005.74 1005.84 1005.85 1005.91 1005.00 1004.88 1005.60 1006.21 1006.91 1007.30 1007.05 1006.72 1006.67 1006.40 1006.33 1006.28 1006.24 1006.29 1005.91 1005.86 1006.00 1005.33 1005.64 1004.39 1003.48 1002.81 1002.29 1001.54 1000.88 1000.57 1000.16 999.90
1016.82 1015.94 1015.10 1015.16 1014.32 1012.60 1010.72 1009.77 1009.78 1010.15 1009.33 1006.16 1005.58 1005.37 1005.40 1005.91 1005.07 1004.45 1004.78 1005.52 1006.31 1006.97 1007.40 1006.56 1006.81 1006.57 1006.02 1005.82 1005.95 1005.57 1005.92 1006.17 1006.38 1006.29 1005.86 1005.42 1005.75 1000.79 1002.91 1001.86 1000.90 1000.19 999.84 999.34 999.07
1016.53 1015.59 1015.09 1013.41 1013.92 1011.37 1010.21 1009.89 1010.07 1010.60 1008.80 1006.99 1006.70 1006.34 1006.19 1005.90 1005.41 1005.37 1005.39 1005.56 1005.88 1006.67 1007.24 1006.78 1006.40 1005.90 1005.10 1005.05 1005.12 1005.23 1005.61 1006.00 1006.54 1006.93 1006.09 1004.58 1005.63 1000.52 1002.12 1001.12 1000.11 999.54 998.99 998.55 998.07
1015.96 1014.72 1014.98 1013.72 1012.27 1010.55 1010.15 1010.16 1010.67 1010.08 1008.65 1008.02 1007.77 1007.65 1007.03 1006.81 1006.82 1006.53 1006.77 1007.19 1007.71 1007.56 1007.48 1007.18 1006.25 1005.13 1004.86 1004.14 1004.82 1005.53 1006.66 1007.49 1007.48 1007.41 1005.23 1005.21 1004.83 1001.48 1001.35 1000.36 999.30 998.68 998.03 997.59 997.28
1015.43 1013.80 1012.89 1012.21 1011.23 1010.83 1010.69 1011.04 1010.65 1009.54 1009.26 1009.09 1008.94 1008.12 1007.76 1008.15 1007.90 1007.96 1008.24 1008.32 1008.24 1008.58 1008.52 1007.97 1007.03 1005.77 1005.76 1005.71 1006.28 1006.57 1006.67 1007.79 1007.43 1006.71 1005.73 1005.09 1003.77 1000.66 999.98 998.82 998.52 997.92 997.00 996.53 996.41
1014.96 1013.07 1012.32 1011.03 1010.87 1010.68 1011.41 1011.04 1010.38 1009.89 1009.74 1009.54 1009.38 1008.93 1008.86 1008.86 1008.95 1009.05 1009.40 1009.27 1009.78 1010.11 1010.51 1009.71 1008.29 1007.10 1006.31 1005.84 1006.24 1005.97 1006.97 1007.34 1007.30 1007.01 1006.40 1004.44 1001.91 1000.07 999.43 998.89 998.14 996.52 995.99 995.79 995.53
1015.70 1013.63 1011.65 1010.12 1009.88 1010.72 1011.68 1011.16 1010.48 1010.18 1009.97 1009.93 1009.97 1010.03 1009.72 1009.64 1009.86 1010.09 1010.09 1009.90 1010.61 1010.96 1011.50 1011.28 1009.71 1008.34 1007.03 1006.31 1005.49 1005.64 1006.73 1007.56 1007.70 1007.04 1005.38 1003.38 1001.55 1000.14 999.72 998.83 997.90 996.70 995.72 995.29 994.89
1015.49 1013.49 1010.65 1009.75 1009.67 1011.10 1011.78 1011.25 1010.37 1009.86 1009.65 1009.79 1009.93 1010.24 1010.39 1010.23 1010.42 1010.53 1010.43 1010.03 1011.04 1011.51 1011.98 1011.84 1011.38 1009.08 1008.49 1006.63 1005.67 1005.97 1006.61 1007.11 1007.06 1007.02 1005.80 1003.78 1001.70 999.95 999.63 999.05 998.90 997.38 996.04 995.65 995.48
1016.38 1013.79 1010.69 1009.92 1010.97 1011.50 1012.05 1011.39 1010.61 1009.66 1009.36 1009.33 1009.80 1010.22 1010.47 1010.46 1010.62 1010.79 1010.43 1010.48 1010.88 1011.22 1011.98 1011.93 1011.55 1009.92 1008.14 1005.95 1005.96 1005.91 1006.02 1006.39 1006.75 1006.03 1004.92 1004.35 1001.57 999.98 999.88 999.40 998.44 997.79 995.85 995.63 996.56
1017.66 1014.24 1010.96 1011.01 1012.47 1012.80 1012.44 1011.80 1010.77 1009.95 1009.43 1009.47 1009.97 1010.17 1010.23 1010.43 1010.83 1010.88 1010.47 1010.26 1010.37 1010.71 1011.93 1012.19 1011.54 1010.21 1007.91 1006.67 1006.24 1005.91 1005.93 1006.28 1006.29 1005.65 1004.45 1004.01 1001.15 999.81 999.37 998.93 998.39 997.95 996.04 996.12 996.39
1018.36 1015.45 1013.55 1013.16 1013.79 1013.91 1013.18 1012.19 1011.03 1010.09 1009.96 1009.84 1010.06 1010.02 1010.12 1010.35 1010.48 1010.23 1009.89 1009.86 1010.38 1010.77 1011.00 1011.40 1011.63 1010.98 1009.60 1007.70 1006.76 1006.13 1005.65 1005.52 1005.83 1005.12 1003.80 1002.90 1000.82 999.69 999.58 999.00 998.47 998.06 997.74 997.75 997.37
1018.08 1016.95 1016.30 1015.28 1014.86 1014.77 1013.63 1012.40 1011.33 1010.59 1010.45 1010.20 1010.12 1010.26 1010.16 1010.21 1009.86 1009.80 1009.78 1009.48 1009.66 1009.41 1010.40 1011.28 1011.16 1010.52 1008.89 1007.29 1006.45 1005.55 1004.78 1004.50 1004.26 1004.02 1003.66 1002.10 1000.55 998.63 999.45 998.53 998.86 998.34 998.80 999.38 996.60
1018.88 1018.08 1017.13 1016.31 1015.27 1014.47 1013.34 1012.57 1011.82 1011.13 1011.06 1010.33 1010.22 1009.99 1010.16 1010.59 1010.51 1009.01 1009.28 1009.11 1009.08 1009.16 1010.20 1011.09 1010.81 1010.10 1008.13 1006.10 1005.09 1004.72 1003.90 1003.69 1002.79 1002.60 1002.41 1001.66 999.84 997.91 998.84 998.59 997.92 998.43 998.97 998.19 996.78
1019.36 1018.66 1017.95 1016.49 1015.58 1014.72 1013.86 1013.14 1012.25 1011.78 1011.13 1010.71 1010.17 1010.23 1010.27 1010.09 1009.71 1008.83 1008.28 1007.96 1008.40 1009.04 1010.15 1010.97 1011.03 1010.25 1007.57 1005.82 1004.66 1004.70 1005.00 1003.90 1002.94 1002.09 1002.16 1001.78 999.84 998.61 999.07 999.19 999.17 998.14 997.35 997.39 996.93
Thickness
5684 5686 5688 5690 5691 5693 5694 5694 5694 5694 5693 5693 5692 5691 5690 5689 5692 5699 5696 5707 5705 5703 5703 5703 5705 5705 5705 5698 5703 5703 5677 5682 5696 5708 5725 5761 5762 5789 5799 5797 5819 5845 5844 5844 5850
5683 5685 5686 5688 5689 5690 5691 5692 5691 5690 5689 5688 5686 5684 5682 5682 5686 5694 5703 5699 5694 5692 5689 5686 5687 5689 5677 5683 5682 5672 5662 5678 5701 5711 5713 5737 5748 5762 5763 5775 5790 5811 5848 5846 5842
5680 5683 5684 5685 5685 5686 5686 5687 5686 5686 5685 5683 5681 5678 5676 5674 5678 5696 5696 5688 5682 5678 5672 5670 5672 5669 5659 5663 5662 5660 5655 5676 5689 5701 5708 5714 5729 5749 5744 5752 5766 5771 5794 5828 5828
5678 5680 5682 5681 5681 5681 5682 5682 5682 5680 5678 5676 5673 5670 5667 5663 5656 5682 5677 5670 5663 5657 5650 5647 5644 5636 5632 5631 5649 5637 5656 5667 5675 5686 5690 5693 5709 5723 5732 5749 5764 5773 5784 5811 5820
5676 5677 5678 5678 5678 5678 5678 5678 5677 5674 5671 5667 5663 5658 5659 5655 5663 5671 5662 5652 5643 5636 5629 5624 5619 5616 5608 5619 5626 5630 5641 5654 5662 5667 5672 5683 5690 5698 5723 5752 5758 5765 5770 5777 5791
5675 5675 5675 5676 5676 5676 5675 5674 5672 5668 5664 5659 5654 5648 5644 5638 5674 5662 5652 5637 5628 5621 5616 5614 5610 5613 5609 5609 5605 5620 5628 5636 5647 5651 5657 5657 5669 5679 5717 5741 5742 5745 5751 5761 5778
5673 5673 5673 5673 5674 5674 5673 5670 5668 5664 5659 5654 5647 5640 5637 5640 5656 5642 5638 5626 5620 5616 5610 5615 5613 5602 5601 5596 5612 5611 5604 5621 5634 5642 5642 5652 5641 5661 5702 5718 5727 5729 5739 5746 5768
5672 5672 5672 5673 5673 5672 5670 5668 5665 5661 5655 5649 5639 5632 5628 5657 5649 5639 5627 5618 5619 5619 5615 5616 5613 5602 5595 5598 5598 5591 5598 5588 5625 5628 5638 5629 5613 5651 5682 5695 5703 5720 5730 5735 5749
5669 5669 5670 5671 5671 5669 5667 5666 5662 5657 5648 5640 5629 5622 5626 5652 5636 5632 5625 5615 5615 5616 5616 5619 5610 5594 5589 5576 5573 5582 5577 5584 5608 5626 5628 5622 5611 5639 5664 5668 5685 5702 5718 5727 5737
5668 5669 5669 5669 5669 5666 5664 5664 5659 5651 5645 5633 5629 5612 5628 5628 5630 5627 5625 5617 5609 5606 5602 5600 5596 5582 5574 5566 5554 5569 5574 5581 5597 5621 5627 5615 5610 5632 5644 5649 5670 5689 5706 5715 5726
5666 5667 5668 5668 5666 5662 5659 5657 5648 5641 5637 5636 5634 5628 5628 5631 5630 5621 5623 5613 5608 5599 5581 5592 5581 5569 5571 5573 5577 5569 5568 5574 5598 5618 5611 5608 5607 5617 5634 5635 5639 5663 5690 5703 5717
5663 5665 5665 5665 5662 5657 5648 5646 5651 5647 5634 5645 5643 5633 5634 5628 5608 5614 5622 5602 5597 5583 5591 5586 5579 5589 5590 5584 5572 5574 5566 5576 5593 5612 5609 5612 5608 5613 5623 5629 5636 5642 5665 5690 5704
5660 5661 5661 5661 5659 5652 5648 5649 5657 5647 5621 5640 5651 5635 5628 5622 5609 5609 5616 5609 5594 5586 5584 5577 5587 5598 5596 5585 5575 5577 5570 5577 5582 5601 5609 5597 5597 5606 5624 5631 5642 5649 5655 5675 5691
5657 5658 5656 5656 5654 5653 5648 5653 5649 5640 5599 5625 5631 5631 5628 5624 5605 5624 5625 5610 5599 5583 5584 5583 5592 5586 5585 5581 5582 5568 5587 5588 5585 5577 5567 5588 5564 5595 5608 5612 5625 5638 5646 5655 5680
5653 5652 5651 5641 5639 5639 5649 5653 5646 5626 5575 5634 5624 5633 5622 5605 5613 5617 5623 5608 5588 5584 5584 5584 5579 5576 5576 5580 5584 5577 5586 5577 5579 5574 5567 5578 5553 5610 5601 5602 5615 5629 5640 5651 5670
5648 5647 5643 5648 5636 5649 5651 5647 5632 5594 5577 5614 5614 5604 5600 5605 5607 5608 5604 5608 5603 5588 5584 5584 5594 5587 5588 5590 5588 5591 5580 5576 5571 5563 5551 5587 5565 5600 5592 5604 5615 5623 5631 5647 5665
5647 5648 5637 5638 5638 5648 5648 5633 5598 5584 5619 5604 5596 5597 5593 5586 5586 5588 5582 5574 5562 5558 5562 5575 5580 5590 5592 5588 5586 5573 5551 5533 5537 5531 5555 5581 5559 5589 5597 5603 5614 5619 5627 5640 5663
5646 5651 5650 5646 5648 5646 5634 5608 5593 5611 5600 5601 5591 5592 5584 5578 5577 5574 5566 5558 5571 5564 5552 5541 5552 5576 5576 5567 5555 5547 5557 5533 5539 5542 5551 5571 5552 5582 5604 5615 5613 5618 5628 5641 5656
5644 5651 5649 5654 5647 5639 5614 5593 5592 5598 5597 5587 5584 5576 5573 5572 5566 5562 5556 5555 5556 5549 5535 5534 5542 5560 5564 5569 5561 5559 5538 5551 5538 5542 5542 5561 5588 5603 5607 5604 5606 5619 5629 5637 5655
5631 5640 5644 5654 5649 5629 5602 5593 5596 5600 5593 5584 5564 5568 5559 5563 5557 5550 5549 5554 5546 5544 5531 5526 5527 5548 5554 5556 5563 5553 5550 5527 5530 5537 5541 5564 5581 5580 5587 5593 5602 5610 5622 5634 5652
5628 5632 5650 5652 5646 5614 5589 5594 5601 5603 5595 5579 5568 5558 5558 5553 5553 5545 5546 5554 5538 5531 5524 5518 5512 5535 5531 5541 5544 5541 5531 5533 5537 5533 5536 5543 5560 5592 5583 5586 5580 5594 5619 5621 5633
5617 5620 5647 5649 5612 5606 5589 5595 5595 5597 5595 5584 5572 5561 5552 5550 5543 5538 5541 5540 5533 5527 5516 5516 5506 5514 5534 5553 5548 5543 5538 5537 5525 5538 5542 5539 5553 5585 5579 5579 5587 5589 5618 5627 5623
5604 5615 5640 5629 5585 5583 5592 5592 5595 5590 5586 5577 5565 5562 5559 5549 5527 5537 5541 5544 5538 5531 5510 5507 5506 5512 5530 5540 5539 5533 5534 5532 5529 5534 5540 5537 5554 5585 5580 5582 5584 5585 5608 5616 5621
5596 5602 5611 5604 5591 5578 5580 5583 5584 5591 5580 5576 5565 5561 5550 5544 5540 5529 5539 5541 5534 5528 5528 5515 5490 5504 5510 5524 5528 5525 5531 5535 5524 5527 5541 5541 5560 5575 5572 5573 5581 5587 5593 5599 5615
5597 5590 5586 5577 5579 5572 5577 5580 5577 5573 5576 5570 5561 5554 5548 5537 5542 5539 5538 5538 5536 5540 5523 5509 5505 5505 5515 5527 5529 5531 5537 5538 5535 5537 5529 5553 5562 5584 5572 5578 5578 5584 5584 5591 5624
5579 5578 5579 5573 5577 5577 5578 5573 5570 5571 5563 5562 5554 5558 5547 5531 5528 5538 5537 5535 5533 5536 5521 5503 5506 5509 5519 5543 5547 5538 5542 5544 5554 5553 5549 5557 5570 5592 5587 5583 5588 5588 5587 5609 5625
5571 5570 5565 5572 5573 5571 5568 5565 5568 5564 5566 5562 5559 5547 5542 5541 5539 5542 5544 5543 5539 5521 5502 5490 5492 5504 5521 5546 5544 5534 5526 5537 5546 5554 5551 5552 5575 5590 5581 5577 5579 5595 5615 5622 5637